Race Results for
US Mtb National Championships
Mammoth Lakes, CA
(Event Information)
Super D on 09/17/2005

Note: Ranking points are NOT upgrade points. An explanation of ranking points can be found here.


Men - Cat 1/2/3 - Senior - 19-29

 Place Points NameCity, StateTime USAC #BibTeam
1Noah Singer   Little Rock, AR0:23:38.58 171313  203 CANNONDALE
2Nathan Winkelmann   Huntsville, TX0:23:49.07 188575  411 EDWARD JON
3Dustin Wanstrath   Durango, CO0:23:50.60 190121  1490 FORTFRAMES
4Robert Herber   Murrieta, CA0:23:53.85 153464  230 INTENSE/IE
5Dan Nielsen   Big Bear City, CA0:24:06.88 139655  1622 BEAR VALLE
6Brandon Akers   Boise, ID0:24:37.39 96007  232 TAMARACK R
7Greg Gibson   Harrogate , TN0:24:46.65 111046  1523 CHUCKY/PHA
8Steve Busher   Hemet, CA0:25:01.00 231970  1402 IDYLLWILD
9Russell Castro   Mammoth Lakes, CA0:25:04.54 233345  1444 
10Nicholas Connolly   Reno, NV0:25:20.71 194489  948 
11Josh Slater   Mammoth Lakes, CA0:25:34.39 234045  1212 
12Ian Burnett   Durango, CO0:25:55.04 191725  1494 TITUS CYCL
13MIKE FUCCI   0:26:00.42  1327 SIERRA SPO
14Daniel Smith   Fayetteville, AR0:27:05.49 176262  1721 HIGHROLLER
15Phillip Ball   Louisville, CO0:27:14.46 201144  1450 70 SPOKES
16SCOTT OREHOK   0:27:23.58  1544 
17MISCHA GRANACH   0:28:02.61  1553 
18MILES GARY   0:28:25.30  870 THE CAR ST
19Michael Kelley   Moorpark, CA0:28:28.13 162080  621 KHS
20Matias Lauryssens   Costa Mesa, CA0:28:29.60 186888  926 CRANKBROTH
21MARIO ARCE   0:28:30.01  1567 DARE/SPOKE
22KEVIN KIRK   0:28:32.83  1445 
23ARA MOVSESSIAN   0:28:39.88  1515 BACKBONE
24John Valera   San Jose, CA0:29:03.10 226957  1159 SANTA CRUZ
25Than White   Asheville, NC0:29:05.60 146435  1520 SHIMANO
26Chris Bradbury   Bishop, CA0:29:14.32 233585  711 
27Nate Simonson   Reno, NV0:29:24.90 195009  1655 RITCHEY/RE
28Michael Colbert   0:29:48.60 233582  684 DYNASTY CL
29CASEY BURROWS   0:29:54.60  696 
30John Cordoba   Morgan Hill, CA0:30:10.95 225871  1323 AFP/VELO S
31Scott Brafford   Fairfield, CA0:30:17.08 211499  1672 
32ERIC ARCE   0:30:58.71  1577 
33RANBIR LALLY   0:32:19.89  1602 RIDE SFO
34THOMAS MALLERY   0:32:54.49  1597 
35OMAR CACHOLA   0:33:06.53  1691 
36JAMES LANHAM   0:33:57.31  1604 GNARBUCKLE
37Christopher Rodriguez   Santa Cruz, CA0:35:57.36 158280  1488 VERSUS CYC
38Cecil Bridges   Oceanside, CA0:36:48.11 214301  1633 
39Steve Marshall   Big Bear Lake0:39:16.71 122108  453 BEAR VALLE
40CONAR HENDRY   1:12:03.10  1276 
DNFCORWIN RYAN     1603 

Men - Cat 1/2/3 - Master - 30-39

 Place Points NameCity, StateTime USAC #BibTeam
1Michael Pastore   Avon, CO0:23:14.62 85683  779 MOUNTAIN P
2Derek Hermon   Big Bear Lake, CA0:23:58.64 15935  1172 BEARVALLEY
3Michael Kent   Goleta, CA0:24:01.44 18956  464 
4Michael Males   Ahwahnee, CA0:24:07.28 111454  791 
5Courtney Cardenas   Mount Aukum, CA0:24:09.49 144304  1651 HAVERTY CY
6Dax Massey   Boulder, CO0:24:19.29 227442  1561 ELLSWORTH/
7Chris Carscadden   Walnut Creek, CA0:24:21.04 165751  1476 FOX/WTB
8Thomas Sulentic   Iowa City, IA0:24:21.85 34574  1061 ATLAS/PEAK
9Ron Koch   Frazier Park, CA0:24:26.09 19530  1409 BICYCLING
10Chris Sherwin   Heber, UT0:24:40.91 190208  1068 REVOLUTION
11Lee McCormack   Boulder, CO0:24:42.61 104040  319 LEELIKESBI
12Todd Smith   Breckenridge, CO0:24:45.34 40304  905 A RACERS E
13Greg Frozley   Colorado Springs, CO0:24:54.11 12490  640 PRO CYCLIN
14Ryan Johnson   Newport Beach, CA0:24:56.53 228262  804 TLD/PATH/F
15Michael Fine   Vacaville, CA0:25:02.30 76882  484 BEYOND BIK
16Josh Smith   Modjeska, CA0:25:07.85 218123  1292 ROCKY MTN
17RANDY HALL   0:25:56.18  1010 
18Daniel McCormack   San Diego, CA0:26:19.19 23313  995 BEYONDBIKE
19Donald Morehouse   Reno, NV0:26:23.50 133559  1738 
20DEVIN YOUNG   0:26:28.54  1289 
21Keith Newsome   Bakersfield, CA0:26:34.20 79109  842 
22Jeff Ham   Pearland, TX0:26:41.36 205451  1695 ALTA ALPIN
23Lars Thomsen   San Jose, CA0:26:44.02 83197  1210 TRAIL HEAD
24David Roth   Boulder, CO0:27:00.94 30683  982 TEAM HELEN
25SHANNON CHURCHILL   0:27:11.01  879 TROYLEE DE
26Shane Stilwell   Sierra Vista, AZ0:27:24.42 155240  903 DAWN TO DU
27BOONE JONES   0:27:38.14  1699 SHERWINS R
28Michael McDonald   Boise, ID0:27:51.58 205325  1086 INTERMOUNT
29Brad Reece   Mission Viejo, CA0:28:10.34 234005  911 
30Michael Nixon   Mius River, FL0:28:12.22 209671  1279 CANNONDALE
31WILLIAM CARYL   0:29:04.15  690 
32Anthony Trujillo   Aptos, CA0:29:22.03 80981  1373 FOX SHOX
33DAVID BARDWELL   0:29:45.50  739 US CAOST G
34Eric Sterner   San Anselmo, CA0:30:00.82 195323  498 RIDESFO
35James Mitchell   Phoenix, AZ0:31:18.52 222643  1339 BEYOND BIK
36Jason Enright   Pearl City, HI0:32:02.37 226998  654 SHAKA BIKE
37MICHAEL REED   0:33:53.94  1619 
38Brian Luke   Escondido, CA0:34:10.96 207017  611 
39Dominique Saati   Cypress, CA0:34:35.04 200748  1593 
40NATHAN BROGGI   0:36:17.08  1274 
41John Galli   Cazenovia, NY0:37:23.53 12696  303 CNYBIKES.C
42GEORGE TORRES   0:40:05.04  1269 
43Glen Davis   Marysville, CA0:52:50.10 218053  1268 
DNFJIM OCONNELL     1324 
DNFMARC MANLOVE     1685 PROCRAFT
DNFTimothy Owen   Castro Valley, CA 79234  1329 
DNFBruce Custer   Ventura, CA 94829  1457 MARZOCCHI/
DNFBOB BARWICK     737 FAMILY CYC
DNFPaul Del Fante   Truckee, CA 218092  665 
DNFHeath Sherratt   Roseville, CA 189953  427 CANNONDALE
DNFBARRY WILLIAMS     412 NEMESIS RA
DNFMATTHEW DAVIS     876 
DNFAdam Kruse   Emeryville, CA 222220  1596 ORGANICVIL
DNFScott Schlachter   San Jose, CA 31591  1331 TEAM WRONG

Men - Cat 1/2/3 - Master - 40-49

 Place Points NameCity, StateTime USAC #BibTeam
1Todd Brown   Rancho Santa Margarita, CA0:23:27.75 48675  955 SOCKITUDES
2Brian Wilson   Mammoth Lakes, CA0:23:33.48 146857  1316 MAMMOTH SP
3ADAM NUYENS   0:24:30.48  988 WTB/FOX/SA
4John Fisher   Oakhurst, CA0:24:49.42 11711  1467 5 STEP/STE
5GREG HERBOLD   0:25:01.23  1446 SRAM
6Peter Sullivan   Newbury Park, CA0:25:25.41 34616  1160 AMGEN
7Stephen Smith   Montrose , CA0:26:33.69 33294  764 TEAM SMITH
8William Roussel   Ashland, OR0:27:17.63 129714  1439 WTB/FOXSHO
9Scott Anthony   Phoenix, AZ0:27:49.05 107969  1381 BEYOND BIK
10MIKE CHAMBERLAND   0:28:10.88  1500 
11Jeff Broussard   Corte Madera, CA0:28:19.37 178135  707 MARIN
12MIKE COLOMBANI   0:28:31.75  681 SCOTTSVALL
13Joe Fabris   Los Gatos, CA0:28:31.92 189959  645 TREO SMART
14Les Price   Scottsdale, AZ0:29:43.38 177801  1379 NO BRAKES
15Mike Eubank   Boulder, CO0:29:44.23 211496  1576 EUBANK RAC
16Doug Streeter   Oro Valley, AZ0:30:55.15 195885  901 ORO VALLEY
17Bobby Bondurant   Big Bear City, CA0:31:08.24 107266  1466 BEAR VALLE
18BRIAN GARDENER   0:31:59.78  1717 
19Michael Yares   Phoenix, AZ0:32:37.70 39161  1395 NO BRAKES/
20Don Herner   Anahiem Hills, CA0:33:54.71 15955  548 TURNER HON
21Thomas Blaine   Highland, CA0:35:15.81 40752  1629 JOSE OLE
22Gary DeWeese   Phoenix, AZ0:44:16.94 90189  1380 NO BRAKES/
DNFMoses Cruz   Tempe, AZ 132796  1427 NO BRAKES
DNFEric Ortega   Calabasas, CA 180931  1552 
DNFMichael Jennings   San Diego, CA 17764  624 LENZSPORT
DNFKeith Darner   Golden, CO 8663  1176 RPM/YETI
DNFRod Graybeal   Coeur D Alene, ID 148384  634 VERTICAL E

Men - Cat 1/2/3 - Master - 50-99

 Place Points NameCity, StateTime USAC #BibTeam
1Paul Zarubin   Truckee, CA0:27:31.37 196952  894 MT LINCOLN
2Scott Lideen   Phoenix, AZ0:27:42.57 142637  925 DPAIR AND
3Michael Toland   Santa Cruz, CA0:28:55.52 214465  1390 ABS/FOX
4Gil Goodrich   Three Rivers, CA0:29:49.45 13682  1355 FILZ BUILT
5Fred Froemel   El Paso, TX0:30:29.96 220462  1105 
6MICHAEL DAVID   0:30:33.01  1503 TROY LEE D
7Allan Beattie   Snoqualmie, WA0:31:50.17 190830  1264 
8William Dunkum   Cool, CA0:34:09.34 157140  662 
9ANDREW KESTLER   0:37:40.89  928 SUMMIT BIC
10DAVID BUCKELL   0:45:38.47  1594 
11THOMAS HERMON   0:47:56.20  1550 BEAR VALLE
12James Van Manen   Ventura, CA0:47:58.96 36453  1058 BICYCLES O
DNFJohn Williams   Oro Valley, AZ 200262  1340 BEYOND BIK
DNFCharles Libolt   Riverside, CA 117814  1091 
DNFPhilip Strong   Idyllwild, CA 152318  419 IDYLLWILD

Men - JR - 1-18

 Place Points NameCity, StateTime USAC #BibTeam
1Trevor Downing   Durango, CO0:23:22.28 161859  1110 TEAM NOVA
2Kyle Wideman   San Luis Obispo, CA0:24:04.86 211640  966 WTB
3Luke Brechwald   Olympia, WA0:25:01.22 178514  709 RAD RACING
4John Purvis   Parthenon, AR0:25:05.23 200977  1075 NWA BUSHME
5Marc Swart   Winona, MN0:25:33.40 202139  972 ALAN FACTO
6Rand Shoaf   Bend, OR0:25:54.94 193872  906 DEVO-BALAN
7Naish Ulmer   Hood River, OR0:26:05.90 175253  1059 YOUNG RIDE
8Sean Lane   Nevada City, CA0:27:35.05 207307  1219 
9Taylor Lideen   Phoenix, AZ0:27:40.08 210964  854 TLD/UTOPIA
10JONATHON BUCKELL   0:28:48.59  1595 DB CONSTRU
11Adam Connolly   Reno, NV0:29:20.31 234021  1228 
12ALEX ANTHONY   0:29:30.24  1232 MARZOCCHI
13Benjamin Kraushaar   Durango, CO0:30:55.37 198737  1000 DURANGO WH
14CULLEN MORAN   0:32:27.66  1308 MTB LITTLE
15Joseph Larko   Los Gatos, CA0:34:50.01 218931  616 SANTA CRUZ
16Cosmos Rothenberg   Pacifica, CA0:35:58.48 226572  1188 BLASTENHOF
17Hunter Becker   Santa Barbara, CA0:48:53.11 217149  888 NO BRAKES
DNFKyle Wright   Grass Valley, CA 205284  1616 SIERRA EXP

Men - Pro

 Place Points NameCity, StateTime USAC #BibTeam
1Adam Craig   Bend, OR0:20:11.45 94510  837 GIANT
2Mike West   Boulder, CO0:20:44.29 37786  833 MAVERICK
3Bryson Perry   Sandy, UT0:21:12.85 89388  1683 SOCKITUDES
4Christopher Eatough   Ellicott City, MD0:21:29.90 97632  1348 TREK/VW
5Sam Schultz   Missoula, MT0:21:35.53 164788  15 U23 NATION
6Ross Schnell   Grand Jct, CO0:21:36.24 99965  1491 TOKYO JOES
7Amon Pease   Point Arena, CA0:21:41.64 82723  1130 INTENSE
8Brian Laiho   Boulder, CO0:21:47.26 114793  405 DEAN BICYC
9Jason Moeschler   Nevada City, CA0:21:51.86 90775  1549 SIERRA EXP
10Michael Broderick   Chilmark, MA0:22:27.03 4922  1477 KENDA/SEVE
11Eric Bierman   Newport Beach, CA0:22:27.07 44269  729 
12Henry O'Donnell   Downieville, CA0:22:39.22 158964  1458 SANTA CRUZ
13John Tomac   Cortez, CO0:22:40.95 40324  1447 KENDA/TOMA
14Brent Winebarger   Colorado Springs, CO0:22:42.80 132038  80 HEALTH FX/
15Osvaldo Olmos   San Luis Obispo, CA0:22:45.67 172541  227 TEAM CORIN
16Spencer Paxson   Bellingham, WA0:22:47.57 152029  403 DEVO BALAN
17T Henshall   Bend, OR0:22:59.31 15869  213 THERAPUTIC
18Miles Venzara   Durango, CO0:23:10.81 138725  1131 TEAM HEALT
19Sean Donovan   Foothill Ranch, CA0:23:12.28 186481  1438 STEVEN K S
20Eric Ransom   Richmond, VA0:23:15.18 150928  404 TAMARACK R
21Kirk Desmond   Novato, CA0:23:39.98 142104  1541 WTB/TRUVAT
22Anthony Medaglia   San Luis Obispo, CA0:23:42.11 115178  1530 TRUVATIV/W
23Shannon Boffeli   Salt Lake City, UT0:23:51.58 43484  220 REVOLUTION
24Dana Weber   Aliso Viejo, CA0:24:05.90 126922  407 JAX BICYCL
25Dustin Sweet   Reno, NV0:24:07.17 34787  345 TEAM EASY
26BARRY WICKS   0:24:29.97  1535 
27Evan Plews   Salem, OR0:24:38.84 28290  846 SANTIAM BI
28Darren Lightfield   Boise, ID0:24:39.94 197708  408 TAMARACK
29Matthew Wittler   Ashland, OR0:24:53.43 211532  206 KELLY BIKE
30Shawn Stevenson   Castro Valley, CA0:26:06.57 172618  1425 
31Michael Valach   Snowshoe, WV0:27:19.58 82951  326 VIC'S TREE
32Douglas Ryden   Colorado Springs, CO0:27:28.27 106147  1573 PRO CYCLIN
33Larry Averitt   Hillsboro, OR0:30:31.74 199880  1569 FAT LARRY
DNFJon Wilson   Carson City, NV 38543  1366 RITCHEY
DNFBryan Culp   Dublin, CA 90704  1499 

Women - Cat 1/2/3 - Senior - 19-29

 Place Points NameCity, StateTime USAC #BibTeam
1Tiffany Allmandinger   Goleta, CA0:28:12.84 154173  829 DEATHSTAR
2Heidi Kanayan   Mammoth Lakes, CA0:29:13.15 214650  1334 BEAR VALLE
3Linden Kimmerer   Flagstaff, AZ0:30:04.61 202511  1246 YAKIMA/TEA
4Jackie Baker   Sandy, UT0:31:00.92 139265  741 FERAL TERR
5Ashley Eyre   Boulder, CO0:32:24.02 214077  646 MAVERICK B
6NADINE BUDBILL   0:33:10.33  701 
7Jennifer Udall   Watsonville, CA0:33:30.57 189902  1374 VELO BELLA
8Lori Ellicott   Fillmore, CA0:37:08.80 218064  1226 BEYOND BIK
DNFKATELYN ADKINS     1635 

Women - Cat 1/2/3 - Master - 30-39

 Place Points NameCity, StateTime USAC #BibTeam
1Tamara Adamek   Boise, ID0:30:09.35 218054  963 TAMARACK
2JOAN GAUVIN   0:32:51.09  1262 TAM TEAM
3MARIA STEARNS   0:33:07.07  904 
4Jennifer Hanks   Salt Lake City, UT0:33:15.32 111202  814 MTBCHICK.C
5Beth Koppe   Oakland, CA0:34:10.97 217972  799 BEYONDBIKE
6BARBARA SLADECK   0:34:42.20  1634 
7Laura Drexler   San Diego, CA0:38:07.30 207274  1201 BEYOND BIK
8Jill Minor   Lake Elsinore, CA0:41:27.78 217595  845 
9Virginia Williams   Barstow, CA0:44:51.38 219862  489 
DNFANJIE PARKER     836 RED HAWK C

Women - Cat 1/2/3 - Master - 40-99

 Place Points NameCity, StateTime USAC #BibTeam
1Alexandria Fabbro   Altadena, CA0:29:50.89 56090  1018 VELO BELLA
2Jacqueline VanWoerkom   Lake Forest, CA0:32:43.76 159289  416 
3Debi Nicholls   Trabuco Canyon, CA0:32:57.92 159710  523 AFP/VELO
4Donna Vargas   Mission Viejo, CA0:38:27.32 194526  1401 VELOSPORT-
5Judi Mumm   Rio Rancho, NM0:40:59.34 50026  526 UTOPIA OPT

Women - JR - 1-18

 Place Points NameCity, StateTime USAC #BibTeam
1Danae York   Boulder, CO0:31:22.58 178290  1039 VELOBUM.CO
2Jesse Nickell   Santa Cruz, CA0:36:29.96 222295  782 BICYCLE TR

Women - Pro

 Place Points NameCity, StateTime USAC #BibTeam
1Kelli Emmett   Plymouth Mi0:25:02.05 156146  1312 FORD/SPECI
2Jamie Whitmore-Cardenas   Mount Aukum, CA0:25:34.92 169611  1525 REEBOK/FEL
3Dara Marks-Marino   Flagstaff, AZ0:25:36.42 144461  1314 FORD/SPECI
4SUE HAYWOOD   0:25:36.50  1349 
5Lorien Lightfield   Boise, ID0:26:08.13 98936  401 TAMARACK
6ELKE BRUETSART   0:26:39.55  1710 
7Tonya Laffey   Altadena, CA0:26:48.44 121249  1546 MTBCHICK.C
8Heather Svahn   Truckee, CA0:26:50.93 112034  402 RENO WHEEL
9Sara Bresnick-Zocchi   Arlington, MA0:26:56.68 166426  1313 FORD/SPECI
10Mary McConneloug   Chilmark, MA0:27:01.17 129285  1478 KENDA/SEVE
11Lea Davison   Jericho, VT0:28:19.74 164014  1442 BALANCE BA
12Wendy Reynolds   Moab, UT0:28:23.51 201162  CANNONDALE
13Alison Dunlap   Colorado Springs, CO0:28:55.71 10194  851 LUNA WOMEN
14Paula Santerior   Reno, NV0:28:59.60 31276  27 
15Kristi Lewis   Durango, CO0:30:24.79 21089  1133 SUN & SKI
16Rebecca Gross   Golden, CO0:32:54.21 176014  1505 SUN AND SK
DNFKristina Andrus   Evergreen, CO 152326  860 CANYON CYC

Report missing or incorrect license numbers

Volkswagen
ShimanoCUOREUSACDFBonk BreakerSierra NevadaSpy
UCI USA Cycling is the official governing body for all disciplines of competitive cycling in the United States. The 501c3, membership-based organization aims both to achieve sustained success in international cycling competition and to grow competitive cycling in America while delivering an exceptional customer experience.
View Children's Online Privacy Protection Policy
US Olympic Committee